Regional Weather Roundup
Issued by NWS

Home | Current Version | Previous Version | Graphics & Text | Print | Product List | Glossary On
Versions: 1 2 3 4 5 6 7 8 9 10 11 12 13 14 15 16 17 18 19 20 21 22 23 24 25 26 27 28 29 30 31 32 33 34 35 36 37 38 39 40 41 42 43 44 45 46 47 48 49 50
000
ASUS43 KTOP 281008
RWRKS

WEATHER ROUNDUP FOR KANSAS
NATIONAL WEATHER SERVICE GOODLAND KS
500 AM CDT SUN AUG 28 2016

NOTE:  "FAIR" INDICATES FEW OR NO CLOUDS BELOW 12,000 FEET WITH NO
SIGNIFICANT WEATHER AND/OR OBSTRUCTIONS TO VISIBILITY.

KSZ001>006-013>018-027>032-041>047-281100-
NORTHWEST KANSAS

CITY           SKY/WX    TMP DP  RH WIND       PRES   REMARKS
GOODLAND       CLOUDY    59  57  93 S3        30.08R
HAYS           MOCLDY    66  57  72 SE5       30.07R
HILL CITY      CLOUDY    65  61  87 SE5       30.06S
RUSSELL        PTCLDY    70  67  90 S6        30.05S
$$

KSZ061>065-074>080-084>089-281100-
SOUTHWEST KANSAS

CITY           SKY/WX    TMP DP  RH WIND       PRES   REMARKS
DODGE CITY     CLOUDY    64  60  87 S8        30.08S
ELKHART          N/A     60  57  89 S3          N/A
GARDEN CITY    CLOUDY    64  58  80 SE3       30.06F
GREAT BEND     PTCLDY    68  61  77 CALM      30.06S
LIBERAL        CLOUDY    64  59  82 W9        30.12F
PRATT          MOCLDY    68  65  89 SE6       30.07S
$$

KSZ066>073-081>083-090>101-281100-
SOUTHEAST KANSAS

CITY           SKY/WX    TMP DP  RH WIND       PRES   REMARKS
CHANUTE        CLEAR     71  69  93 SE5       30.08R
COFFEYVILLE    CLEAR     70  68  93 CALM      30.07R
HUTCHINSON     PTCLDY    72  69  90 SE5       30.06S
MEDICINE LODGE   N/A     70  67  90 CALM      30.05R
NEWTON         CLEAR     70  68  93 S7        30.08R
PARSONS        CLEAR     70  69  97 E3        30.09R
WICHITA INTL   CLOUDY    73  69  87 SE8       30.06S
WICHITA JABRA  CLOUDY    72  70  93 S8        30.07R
WICHITA MCCONL CLOUDY    73  69  87 S7        30.07R
WINFIELD       CLEAR     73  70  90 SE5       30.08R
$$

KSZ007>012-019>026-033>040-048>060-102>105-281100-
NORTHEAST KANSAS

CITY           SKY/WX    TMP DP  RH WIND       PRES   REMARKS
CONCORDIA      CLOUDY    69  67  93 S8        30.06S
EMPORIA        CLEAR     70  68  93 S6        30.07R
LAWRENCE       PTCLDY    69  69 100 E3        30.07R
MANHATTAN      CLEAR     71  68  90 CALM      30.06R
MARYSVILLE     PTCLDY    70  68  94 SE3       30.07S
OLATHE IND     PTCLDY    72  70  93 S5        30.09R
OLATHE EXE     PTCLDY    71  70  96 S3        30.08S
SALINA         PTCLDY    73  69  87 CALM      30.06R
TOPEKA BILLARD PTCLDY    71  68  90 CALM      30.06S
TOPEKA FORBES  CLEAR     72  69  90 SE5       30.07R
$$



USA.gov is the U.S. government's official web portal to all federal, state and local government web resources and services.